Asheboro, NC

7:35 PM EDT on August 28, 2016 (GMT -0400)
Asheboro Municipal

Weather History for KHBI - April, 2014

Change the Weather History Date:

Tuesday, April 29, 2014

  Actual Average Record
Temperature  
Mean Temperature 56 °F -  
Max Temperature 60 °F 73 °F 90 °F (1950)
Min Temperature 52 °F 49 °F 34 °F (1944)
Degree Days  
Heating Degree Days 9    
Growing Degree Days 6 (Base 50)    
Moisture  
Dew Point 55 °F    
Average Humidity 97    
Maximum Humidity 100    
Minimum Humidity 88    
Precipitation  
Precipitation 0.00 in - - ()
Sea Level Pressure  
Sea Level Pressure 29.99 in    
Wind  
Wind Speed 4 mph (NE)    
Max Wind Speed 9 mph    
Max Gust Speed -    
Visibility 4 miles    
Events      
Averages and records for this station are not official NWS values.
T = Trace of Precipitation, MM = Missing Value Source: NWS Daily Summary

Daily Weather History Graph

Daily Weather History Graph

Search for Another Location

Airport or City:

Trip Planner

Search our weather history database for the weather conditions in past years. The results will help you decide how hot, cold, wet, or windy it might be!

Date:

Astronomy

Apr. 29, 2014 Rise Set
Actual Time 6:29 AM EDT 8:04 PM EDT
Civil Twilight 6:02 AM EDT 8:31 PM EDT
Nautical Twilight 5:30 AM EDT 9:04 PM EDT
Astronomical Twilight 4:55 AM EDT 9:39 PM EDT
Moon 6:46 AM EDT (4/29) 8:42 PM EDT (4/29)
Length of Visible Light 14h 29m
Length of Day
13h 34m
New Moon, 0% of the Moon is Illuminated
Apr 29
New Moon
May 6
First Quarter
May 14
Full
May 21
Last Quarter
May 28
New

Hourly Weather History & Observations

Time (EDT) Temp. Dew Point Humidity Pressure Visibility Wind Dir Wind Speed Gust Speed Precip Events Conditions
12:15 AM 56.3 °F 52.9 °F 88% 29.96 in 10.0 mi North 3.5 mph - N/A   Overcast
12:35 AM 55.9 °F 52.9 °F 89% 29.96 in 7.0 mi NE 3.5 mph - N/A   Overcast
12:55 AM 55.6 °F 53.1 °F 91% 29.96 in 7.0 mi Calm Calm - N/A   Overcast
1:15 AM 55.4 °F 53.1 °F 92% 29.95 in 7.0 mi North 4.6 mph - N/A   Overcast
1:35 AM 54.7 °F 53.4 °F 96% 29.96 in 5.0 mi NNE 5.8 mph - N/A   Overcast
1:55 AM 54.5 °F 53.2 °F 96% 29.94 in 5.0 mi NNE 5.8 mph - N/A   Overcast
2:15 AM 54.1 °F 53.6 °F 98% 29.94 in 3.0 mi NNE 5.8 mph - N/A   Overcast
2:35 AM 53.8 °F 53.6 °F 99% 29.95 in 2.5 mi NE 4.6 mph - N/A   Overcast
2:55 AM 53.6 °F 53.2 °F 99% 29.95 in 2.0 mi ENE 4.6 mph - N/A   Overcast
3:15 AM 53.2 °F 53.2 °F 100% 29.95 in 2.0 mi ENE 5.8 mph - N/A   Overcast
3:35 AM 53.1 °F 53.1 °F 100% 29.95 in 2.0 mi ENE 3.5 mph - N/A   Overcast
3:55 AM 52.9 °F 52.9 °F 100% 29.96 in 2.0 mi NNE 3.5 mph - N/A   Overcast
4:15 AM 52.9 °F 52.9 °F 100% 29.95 in 2.0 mi NE 6.9 mph - N/A   Overcast
4:35 AM 52.9 °F 52.9 °F 100% 29.95 in 2.5 mi Calm Calm - N/A   Overcast
5:15 AM 53.1 °F 53.1 °F 100% 29.96 in 2.5 mi NE 3.5 mph - N/A   Overcast
5:35 AM 52.9 °F 52.9 °F 100% 29.97 in 2.5 mi ENE 6.9 mph - N/A   Overcast
5:55 AM 52.9 °F 52.9 °F 100% 29.96 in 2.0 mi NE 4.6 mph - N/A   Overcast
6:15 AM 52.9 °F 52.9 °F 100% 29.97 in 2.0 mi NE 4.6 mph - N/A   Overcast
6:35 AM 53.1 °F 53.1 °F 100% 29.97 in 2.0 mi NE 5.8 mph - N/A   Overcast
6:55 AM 53.1 °F 53.1 °F 100% 29.98 in 1.2 mi NE 3.5 mph - N/A   Overcast
7:15 AM 53.2 °F 53.2 °F 100% 29.99 in 1.5 mi ENE 3.5 mph - N/A   Overcast
7:35 AM 53.2 °F 53.2 °F 100% 29.98 in 1.2 mi ENE 5.8 mph - N/A   Overcast
8:15 AM 53.2 °F 53.2 °F 100% 30.00 in 1.5 mi ENE 3.5 mph - N/A   Overcast
8:35 AM 53.4 °F 53.4 °F 100% 30.00 in 1.5 mi NE 4.6 mph - N/A   Overcast
8:55 AM 53.4 °F 53.4 °F 100% 30.00 in 1.2 mi ENE 5.8 mph - N/A   Overcast
9:15 AM 53.6 °F 53.6 °F 100% 29.99 in 1.2 mi NE 6.9 mph - N/A   Overcast
9:35 AM 53.6 °F 53.6 °F 100% 29.99 in 1.2 mi East 6.9 mph - N/A   Overcast
9:55 AM 53.6 °F 53.6 °F 100% 29.99 in 1.2 mi Calm Calm - N/A   Overcast
10:15 AM 54.0 °F 54.0 °F 100% 29.99 in 2.0 mi East 3.5 mph - N/A   Overcast
10:35 AM 54.5 °F 54.5 °F 100% 29.98 in 2.0 mi East 3.5 mph - N/A   Overcast
10:55 AM 54.7 °F 54.7 °F 100% 29.99 in 2.0 mi East 4.6 mph - N/A   Overcast
11:15 AM 55.0 °F 54.9 °F 99% 29.97 in 2.0 mi ENE 6.9 mph - N/A   Overcast
11:35 AM 55.8 °F 55.4 °F 99% 29.98 in 3.0 mi ENE 5.8 mph - N/A   Overcast
11:55 AM 55.8 °F 55.6 °F 99% 29.99 in 3.0 mi NNE 3.5 mph - N/A   Overcast
12:15 PM 55.8 °F 55.4 °F 99% 30.00 in 2.0 mi NE 5.8 mph - N/A   Overcast
12:35 PM 56.3 °F 55.9 °F 99% 30.00 in 2.0 mi North 5.8 mph - N/A   Overcast
12:55 PM 56.7 °F 56.3 °F 99% 30.00 in 2.0 mi NNE 5.8 mph - N/A   Overcast
1:15 PM 57.2 °F 56.3 °F 97% 29.99 in 4.0 mi ENE 5.8 mph - N/A   Overcast
1:35 PM 57.7 °F 56.5 °F 96% 29.99 in 5.0 mi ENE 5.8 mph - N/A   Overcast
1:55 PM 58.3 °F 56.5 °F 94% 29.98 in 7.0 mi NE 4.6 mph - N/A   Overcast
2:15 PM 58.5 °F 56.7 °F 94% 29.99 in 7.0 mi NNE 5.8 mph - N/A   Overcast
2:35 PM 58.5 °F 56.8 °F 94% 29.99 in 7.0 mi ENE 4.6 mph - N/A   Overcast
2:55 PM 58.8 °F 56.8 °F 93% 29.98 in 7.0 mi ENE 4.6 mph - N/A   Overcast
3:15 PM 59.2 °F 57.2 °F 93% 29.99 in 7.0 mi ENE 5.8 mph - N/A   Overcast
3:35 PM 59.9 °F 57.4 °F 91% 29.99 in 7.0 mi North 6.9 mph - N/A   Overcast
3:55 PM 59.9 °F 57.6 °F 92% 29.98 in 7.0 mi NE 5.8 mph - N/A   Overcast
4:15 PM 59.9 °F 57.6 °F 92% 29.98 in 5.0 mi NNE 4.6 mph - N/A   Overcast
4:35 PM 60.3 °F 57.7 °F 91% 29.98 in 5.0 mi North 6.9 mph - N/A   Overcast
4:55 PM 59.9 °F 57.7 °F 93% 29.98 in 5.0 mi NNE 6.9 mph - N/A   Overcast
5:15 PM 60.1 °F 57.9 °F 93% 29.99 in 5.0 mi ENE 8.1 mph - N/A   Overcast
5:35 PM 59.9 °F 57.7 °F 93% 29.99 in 5.0 mi NE 9.2 mph - N/A   Overcast
5:55 PM 59.2 °F 57.4 °F 94% 29.98 in 5.0 mi NNE 9.2 mph - N/A   Overcast
6:35 PM 58.1 °F 56.8 °F 96% 30.00 in 5.0 mi NNE 5.8 mph - N/A   Overcast
6:55 PM 57.7 °F 56.7 °F 96% 30.01 in 5.0 mi NE 5.8 mph - N/A   Overcast
7:15 PM 57.6 °F 56.5 °F 96% 30.01 in 4.0 mi NE 4.6 mph - N/A   Overcast
7:35 PM 57.4 °F 56.8 °F 98% 30.02 in 3.0 mi NNE 6.9 mph - N/A   Overcast
7:55 PM 57.2 °F 56.7 °F 98% 30.02 in 3.0 mi NE 6.9 mph - N/A   Overcast
8:15 PM 57.2 °F 56.8 °F 99% 30.03 in 4.0 mi NNE 4.6 mph - N/A   Overcast
8:35 PM 57.2 °F 56.7 °F 98% 30.02 in 4.0 mi NNE 3.5 mph - N/A   Overcast
8:55 PM 56.8 °F 56.7 °F 99% 30.02 in 3.0 mi NNE 3.5 mph - N/A   Overcast
9:15 PM 56.5 °F 56.5 °F 100% 30.02 in 3.0 mi NE 4.6 mph - N/A   Overcast
9:35 PM 56.7 °F 56.7 °F 100% 30.02 in 3.0 mi ENE 5.8 mph - N/A   Overcast
9:55 PM 56.8 °F 56.8 °F 100% 30.03 in 3.0 mi NE 3.5 mph - N/A   Overcast
10:15 PM 57.2 °F 57.2 °F 100% 30.04 in 3.0 mi NE 3.5 mph - N/A   Overcast
10:35 PM 57.2 °F 57.2 °F 100% 30.05 in 4.0 mi Calm Calm - N/A   Overcast
10:55 PM 57.2 °F 57.2 °F 100% 30.05 in 3.0 mi Calm Calm - N/A   Overcast
11:15 PM 57.4 °F 57.4 °F 100% 30.05 in 3.0 mi Calm Calm - N/A   Overcast
11:35 PM 57.6 °F 57.6 °F 100% 30.05 in 3.0 mi Calm Calm - N/A   Overcast
11:55 PM 57.6 °F 57.6 °F 100% 30.04 in 4.0 mi Calm Calm - N/A   Overcast